M0UPS-13 Weather Reports


Display with metric or nautical units.
time (UTC)temp
F
wind
direction
speed
MPH
gust
MPH
rain 1hr
in
rain 24hr
in
rain mn
in
humidity
%
barometer
mb
20260507203002 54 215 2.0 3.0 0.00 0.00 0.00 71 1016.8
20260507202503 54 205 1.0 4.0 0.00 0.00 0.00 70 1016.7
20260507202002 54 32 1.0 3.0 0.00 0.00 0.00 71 1016.6
20260507201503 54 348 2.0 5.0 0.00 0.00 0.00 71 1016.4
20260507201002 54 265 0.0 2.0 0.00 0.00 0.00 70 1016.6
20260507200502 54 312 1.0 3.0 0.00 0.00 0.00 70 1016.6
20260507200002 54 297 1.0 2.0 0.00 0.00 0.00 70 1016.4
20260507195502 54 50 1.0 3.0 0.00 0.00 0.00 69 1016.2
20260507195002 54 257 1.0 2.0 0.00 0.00 0.00 69 1016.2
20260507194503 54 36 3.0 3.0 0.00 0.00 0.00 68 1016.3
20260507194002 54 224 1.0 3.0 0.00 0.00 0.00 68 1016.3
20260507193502 54 285 0.0 3.0 0.00 0.00 0.00 68 1016.1
20260507193002 55 239 1.0 2.0 0.00 0.00 0.00 68 1016.0
20260507192502 55 52 3.0 5.0 0.00 0.00 0.00 67 1016.1
20260507192002 55 234 1.0 3.0 0.00 0.00 0.00 67 1016.3
20260507191502 55 177 2.0 4.0 0.00 0.00 0.00 66 1016.2
20260507191002 55 32 3.0 4.0 0.00 0.00 0.00 66 1016.1
20260507190502 55 4 2.0 3.0 0.00 0.00 0.00 66 1016.1
20260507190003 56 1 1.0 4.0 0.00 0.00 0.00 66 1016.0
20260507185502 56 75 2.0 4.0 0.00 0.00 0.00 67 1015.9
20260507185002 56 316 1.0 3.0 0.00 0.00 0.00 66 1016.0
20260507184503 56 205 0.0 4.0 0.00 0.00 0.00 66 1016.0
20260507184002 56 194 1.0 4.0 0.00 0.00 0.00 65 1015.9
20260507183502 56 196 2.0 5.0 0.00 0.00 0.00 65 1015.9
20260507183002 56 300 0.0 3.0 0.00 0.00 0.00 65 1015.9
20260507182502 56 226 0.0 3.0 0.00 0.00 0.00 64 1015.9
20260507182003 56 293 1.0 2.0 0.00 0.00 0.00 64 1015.9
20260507181502 57 267 2.0 4.0 0.00 0.00 0.00 63 1015.9
20260507181002 57 272 1.0 3.0 0.00 0.00 0.00 62 1015.9
20260507180002 57 258 1.0 4.0 0.00 0.00 0.00 61 1015.8
20260507175502 57 42 2.0 6.0 0.00 0.00 0.00 59 1015.9
20260507175002 58 301 1.0 4.0 0.00 0.00 0.00 59 1015.9
20260507174502 58 160 2.0 6.0 0.00 0.00 0.00 59 1015.9
20260507174002 58 255 1.0 4.0 0.00 0.00 0.00 58 1015.6
20260507173502 58 239 1.0 4.0 0.00 0.00 0.00 58 1015.7
20260507173002 58 253 1.0 3.0 0.00 0.00 0.00 57 1015.7
20260507172502 58 205 2.0 4.0 0.00 0.00 0.00 56 1015.7
20260507172002 58 240 1.0 6.0 0.00 0.00 0.00 55 1015.7
20260507171502 58 223 2.0 4.0 0.00 0.00 0.00 55 1015.9
20260507171002 58 47 3.0 4.0 0.00 0.00 0.00 55 1015.7
20260507170502 58 169 3.0 6.0 0.00 0.00 0.00 54 1015.7
20260507170002 59 174 2.0 3.0 0.00 0.00 0.00 53 1015.7
20260507165502 59 186 2.0 4.0 0.00 0.00 0.00 53 1015.6
20260507165002 59 227 1.0 3.0 0.00 0.00 0.00 53 1015.8
20260507164502 59 260 1.0 3.0 0.00 0.00 0.00 53 1015.7
20260507164002 59 272 2.0 3.0 0.00 0.00 0.00 55 1015.7
20260507163502 59 93 3.0 5.0 0.00 0.00 0.00 54 1015.7
20260507163002 59 218 1.0 3.0 0.00 0.00 0.00 53 1015.6
20260507162502 59 244 1.0 2.0 0.00 0.00 0.00 53 1015.8
20260507162002 59 186 1.0 3.0 0.00 0.00 0.00 53 1015.8
20260507161502 59 282 1.0 2.0 0.00 0.00 0.00 53 1015.7
20260507161002 59 268 2.0 4.0 0.00 0.00 0.00 52 1015.9
20260507160502 59 274 1.0 2.0 0.00 0.00 0.00 53 1015.8
20260507160002 59 201 3.0 4.0 0.00 0.00 0.00 53 1015.7
20260507155502 59 276 0.0 3.0 0.00 0.00 0.00 53 1015.7
20260507155002 60 197 2.0 4.0 0.00 0.00 0.00 53 1015.7
20260507154501 60 249 2.0 5.0 0.00 0.00 0.00 52 1015.8
20260507154002 61 256 3.0 5.0 0.00 0.00 0.00 51 1015.7
20260507153502 60 265 0.0 4.0 0.00 0.00 0.00 53 1015.7
20260507153002 60 326 2.0 5.0 0.00 0.00 0.00 51 1015.9
20260507152502 58 293 1.0 3.0 0.00 0.00 0.00 52 1015.7
20260507152002 58 270 2.0 3.0 0.00 0.00 0.00 53 1015.6
20260507151502 58 272 1.0 2.0 0.00 0.00 0.00 53 1015.9
20260507151002 58 294 1.0 4.0 0.00 0.00 0.00 52 1015.9
20260507150502 58 235 1.0 3.0 0.00 0.00 0.00 51 1015.8
20260507150002 58 216 2.0 3.0 0.00 0.00 0.00 52 1015.9
20260507145502 58 244 1.0 2.0 0.00 0.00 0.00 53 1015.9
20260507145002 59 84 1.0 4.0 0.00 0.00 0.00 51 1015.9
20260507144502 59 316 3.0 4.0 0.00 0.00 0.00 51 1015.9
20260507144002 59 310 1.0 2.0 0.00 0.00 0.00 52 1015.9
20260507143502 59 82 3.0 5.0 0.00 0.00 0.00 52 1015.9
20260507143002 59 55 1.0 4.0 0.00 0.00 0.00 50 1015.8
20260507142502 59 213 1.0 2.0 0.00 0.00 0.00 53 1015.8
20260507142002 60 63 5.0 6.0 0.00 0.00 0.00 51 1015.9
20260507141502 60 300 0.0 4.0 0.00 0.00 0.00 53 1015.9
20260507141002 60 196 2.0 5.0 0.00 0.00 0.00 52 1015.9
20260507140502 60 41 3.0 5.0 0.00 0.00 0.00 53 1015.9
20260507140002 61 237 1.0 9.0 0.00 0.00 0.00 51 1015.9
20260507135502 61 209 2.0 9.0 0.00 0.00 0.00 50 1016.0
20260507135002 60 158 5.0 7.0 0.00 0.00 0.00 50 1015.9
20260507134502 60 181 1.0 5.0 0.00 0.00 0.00 48 1015.9
20260507134002 61 214 1.0 3.0 0.00 0.00 0.00 52 1016.0
20260507133502 60 249 1.0 3.0 0.00 0.00 0.00 51 1016.1
20260507133002 61 46 2.0 6.0 0.00 0.00 0.00 50 1016.1
20260507132502 61 241 3.0 6.0 0.00 0.00 0.00 49 1016.0
20260507132002 60 287 0.0 3.0 0.00 0.00 0.00 51 1016.2
20260507131502 60 225 1.0 3.0 0.00 0.00 0.00 51 1016.2
20260507131002 61 180 2.0 5.0 0.00 0.00 0.00 54 1016.1
20260507130502 60 305 1.0 6.0 0.00 0.00 0.00 52 1016.1
20260507130002 61 247 1.0 4.0 0.00 0.00 0.00 52 1016.2
20260507125502 59 245 3.0 4.0 0.00 0.00 0.00 53 1016.2
20260507125002 59 187 3.0 4.0 0.00 0.00 0.00 54 1016.2
20260507124502 58 355 1.0 2.0 0.00 0.00 0.00 58 1016.4
20260507124002 58 351 3.0 6.0 0.00 0.00 0.00 54 1016.4
20260507123502 58 199 1.0 2.0 0.00 0.00 0.00 55 1016.5
20260507123002 58 17 2.0 3.0 0.00 0.00 0.00 54 1016.4
20260507122502 58 76 3.0 5.0 0.00 0.00 0.00 54 1016.5
20260507122002 57 270 1.0 2.0 0.00 0.00 0.00 57 1016.6
20260507121502 57 35 2.0 5.0 0.00 0.00 0.00 56 1016.6
20260507121002 57 307 1.0 2.0 0.00 0.00 0.00 58 1016.4
20260507120502 57 68 2.0 3.0 0.00 0.00 0.00 57 1016.5
20260507120002 57 318 1.0 3.0 0.00 0.00 0.00 58 1016.5
20260507115502 57 208 2.0 3.0 0.00 0.00 0.00 57 1016.4
20260507115002 56 269 0.0 2.0 0.00 0.00 0.00 60 1016.4
20260507114502 56 226 0.0 2.0 0.00 0.00 0.00 61 1016.6
20260507114003 56 58 1.0 4.0 0.00 0.00 0.00 60 1016.5
20260507113502 56 352 3.0 3.0 0.00 0.00 0.00 60 1016.4
20260507113002 56 50 1.0 4.0 0.00 0.00 0.00 61 1016.6
20260507112502 56 110 3.0 4.0 0.00 0.00 0.00 61 1016.6
20260507112002 55 270 2.0 3.0 0.00 0.00 0.00 60 1016.5
20260507111503 55 236 2.0 2.0 0.00 0.00 0.00 62 1016.6
20260507111002 56 180 2.0 3.0 0.00 0.00 0.00 61 1016.5
20260507110501 56 252 1.0 3.0 0.00 0.00 0.00 60 1016.7
20260507110002 55 282 0.0 3.0 0.00 0.00 0.00 61 1016.8
20260507105502 55 191 2.0 3.0 0.00 0.00 0.00 61 1016.7
20260507105002 55 221 1.0 2.0 0.00 0.00 0.00 62 1016.6
20260507104501 55 194 1.0 4.0 0.00 0.00 0.00 62 1017.0
20260507104003 55 2 1.0 4.0 0.00 0.00 0.00 62 1016.7
20260507103502 56 175 2.0 4.0 0.00 0.00 0.00 62 1016.8
20260507103002 56 84 2.0 4.0 0.00 0.00 0.00 60 1016.6
20260507102502 56 236 1.0 3.0 0.00 0.00 0.00 61 1016.7
20260507102002 57 111 2.0 4.0 0.00 0.00 0.00 59 1017.0
20260507101502 60 57 1.0 4.0 0.00 0.00 0.00 56 1017.1
20260507101002 59 63 0.0 4.0 0.00 0.00 0.00 60 1017.0
20260507100502 58 187 1.0 4.0 0.00 0.00 0.00 59 1016.8
20260507100002 56 46 3.0 4.0 0.00 0.00 0.00 62 1016.8
20260507095502 55 110 4.0 4.0 0.00 0.00 0.00 65 1016.8
20260507095002 55 259 0.0 0.0 0.00 0.00 0.00 67 1016.7
20260507094502 55 258 1.0 2.0 0.00 0.00 0.00 65 1016.7
20260507094002 54 280 0.0 3.0 0.00 0.00 0.00 66 1016.6
20260507093502 54 288 1.0 2.0 0.00 0.00 0.00 67 1016.6
20260507093002 54 272 0.0 0.0 0.00 0.00 0.00 67 1016.7
20260507092502 54 272 0.0 0.0 0.00 0.00 0.00 68 1016.8
20260507092002 53 255 0.0 2.0 0.00 0.00 0.00 68 1016.7
20260507091502 53 248 1.0 2.0 0.00 0.00 0.00 68 1016.7
20260507091002 53 287 1.0 2.0 0.00 0.00 0.00 66 1016.7
20260507090502 53 286 0.0 2.0 0.00 0.00 0.00 69 1016.8
20260507090002 54 298 1.0 3.0 0.00 0.00 0.00 67 1016.6
20260507085502 54 290 0.0 3.0 0.00 0.00 0.00 67 1016.7
20260507085002 54 228 0.0 0.0 0.00 0.00 0.00 64 1016.7
20260507084502 54 228 0.0 0.0 0.00 0.00 0.00 63 1016.8
20260507084002 54 240 0.0 2.0 0.00 0.00 0.00 63 1016.8
20260507083502 54 240 0.0 2.0 0.00 0.00 0.00 62 1016.7
20260507083002 54 233 0.0 0.0 0.00 0.00 0.00 65 1016.6
20260507082501 55 235 1.0 2.0 0.00 0.00 0.00 64 1016.7
20260507082001 55 276 1.0 2.0 0.00 0.00 0.00 65 1016.7
20260507081502 55 230 0.0 0.0 0.00 0.00 0.00 67 1016.6
20260507081002 56 246 2.0 3.0 0.00 0.00 0.00 64 1016.5
20260507080502 57 299 1.0 4.0 0.00 0.00 0.00 62 1016.4
20260507080002 58 82 3.0 5.0 0.00 0.00 0.00 60 1016.6
20260507075502 58 152 4.0 4.0 0.00 0.00 0.00 62 1016.4
20260507075002 57 224 0.0 2.0 0.00 0.00 0.00 64 1016.6
20260507074502 55 218 0.0 2.0 0.00 0.00 0.00 69 1016.5
20260507074002 54 260 1.0 2.0 0.00 0.00 0.00 72 1016.6
20260507073503 54 297 1.0 3.0 0.00 0.00 0.00 72 1016.6
20260507073002 54 33 3.0 3.0 0.00 0.00 0.00 72 1016.7
20260507072502 54 245 0.0 3.0 0.00 0.00 0.00 71 1016.7
20260507072002 55 286 1.0 2.0 0.00 0.00 0.00 71 1016.6
20260507071502 55 239 2.0 3.0 0.00 0.00 0.00 69 1016.7
20260507071002 56 224 1.0 2.0 0.00 0.00 0.00 70 1016.6
20260507070502 54 316 1.0 2.0 0.00 0.00 0.00 72 1016.5
20260507070003 54 268 1.0 3.0 0.00 0.00 0.00 73 1016.7
20260507065502 54 216 1.0 2.0 0.00 0.00 0.00 73 1016.5
20260507065002 54 320 1.0 4.0 0.00 0.00 0.00 73 1016.7
20260507064502 53 325 2.0 4.0 0.00 0.00 0.00 73 1016.5
20260507064002 53 306 2.0 3.0 0.00 0.00 0.00 74 1016.5
20260507063502 52 328 1.0 3.0 0.00 0.00 0.00 75 1016.4
20260507063002 53 305 0.0 2.0 0.00 0.00 0.00 72 1016.5
20260507062502 52 305 0.0 0.0 0.00 0.00 0.00 75 1016.5
20260507062002 53 305 0.0 0.0 0.00 0.00 0.00 75 1016.3
20260507061502 52 305 0.0 0.0 0.00 0.00 0.00 75 1016.3
20260507061002 51 305 0.0 0.0 0.00 0.00 0.00 79 1016.3
20260507060502 50 305 0.0 0.0 0.00 0.00 0.00 81 1016.3
20260507060002 48 305 0.0 0.0 0.00 0.00 0.00 85 1016.1
20260507055502 47 305 0.0 0.0 0.00 0.00 0.00 89 1016.2
20260507055002 46 305 0.0 0.0 0.00 0.00 0.00 88 1016.2
20260507054502 46 305 0.0 0.0 0.00 0.00 0.00 89 1016.3
20260507054002 45 305 0.0 0.0 0.00 0.00 0.00 90 1016.3
20260507053502 45 305 0.0 0.0 0.00 0.00 0.00 90 1016.1
20260507053003 45 305 0.0 0.0 0.00 0.00 0.00 90 1016.0
20260507052502 45 305 0.0 0.0 0.00 0.00 0.00 89 1016.1
20260507052003 45 305 0.0 0.0 0.00 0.00 0.00 89 1016.1
20260507051502 46 305 0.0 0.0 0.00 0.00 0.00 89 1016.1
20260507051002 46 305 0.0 0.0 0.00 0.00 0.00 90 1016.0
20260507050502 46 305 0.0 0.0 0.00 0.00 0.00 90 1015.9
20260507050002 46 305 0.0 0.0 0.00 0.00 0.00 90 1016.0
20260507045502 46 305 1.0 2.0 0.00 0.00 0.00 91 1016.0
20260507045002 46 305 0.0 0.0 0.00 0.00 0.00 91 1016.0
20260507044502 45 305 0.0 0.0 0.00 0.00 0.00 91 1016.0
20260507044002 45 305 0.0 0.0 0.00 0.00 0.00 91 1015.9
20260507043502 45 305 0.0 0.0 0.00 0.00 0.00 91 1015.9
20260507043002 45 305 0.0 0.0 0.00 0.00 0.00 91 1015.9
20260507042502 45 305 0.0 0.0 0.00 0.00 0.00 91 1015.9
20260507042002 45 305 0.0 0.0 0.00 0.00 0.00 91 1015.9
20260507041502 46 305 0.0 0.0 0.00 0.00 0.00 91 1016.0
20260507041002 46 305 0.0 0.0 0.00 0.00 0.00 91 1015.9
20260507040502 46 305 0.0 0.0 0.00 0.00 0.00 91 1015.9
20260507040002 46 305 0.0 0.0 0.00 0.00 0.00 91 1015.9
20260507035502 46 305 0.0 0.0 0.00 0.00 0.00 91 1015.9
20260507035002 45 305 0.0 0.0 0.00 0.00 0.00 91 1015.9
20260507034502 45 305 0.0 0.0 0.00 0.00 0.00 91 1015.9
20260507034002 45 305 0.0 0.0 0.00 0.00 0.00 91 1015.9
20260507033502 45 305 0.0 0.0 0.00 0.00 0.00 90 1015.9
20260507033002 45 305 0.0 0.0 0.00 0.00 0.00 90 1015.8
20260507032502 45 305 0.0 0.0 0.00 0.00 0.00 90 1015.8
20260507032002 46 305 0.0 0.0 0.00 0.00 0.00 90 1015.7
20260507031502 46 305 0.0 0.0 0.00 0.00 0.00 90 1015.7
20260507031002 46 305 0.0 0.0 0.00 0.00 0.00 89 1015.9
20260507030502 46 305 0.0 0.0 0.00 0.00 0.00 89 1015.7
20260507030002 46 305 0.0 0.0 0.00 0.00 0.00 88 1015.8
20260507025502 46 305 0.0 0.0 0.00 0.00 0.00 88 1015.8
20260507025002 46 305 0.0 0.0 0.00 0.00 0.00 88 1015.8
20260507024502 47 305 0.0 0.0 0.00 0.00 0.00 88 1015.7
20260507024002 47 305 0.0 0.0 0.00 0.00 0.00 87 1015.8
20260507023502 47 305 0.0 0.0 0.00 0.00 0.00 87 1015.9
20260507023002 47 305 0.0 0.0 0.00 0.00 0.00 87 1015.9
20260507022502 47 305 0.0 0.0 0.00 0.00 0.00 87 1015.7
20260507022110 47 305 0.0 0.0 0.00 0.00 0.00 86 1015.6
20260507021502 48 305 0.0 0.0 0.00 0.00 0.00 86 1015.6
20260507021002 48 305 0.0 0.0 0.00 0.00 0.00 86 1015.5
20260507020503 48 305 0.0 0.0 0.00 0.00 0.00 86 1015.5
20260507020002 48 305 0.0 0.0 0.00 0.00 0.00 86 1015.5
20260507015502 48 305 0.0 0.0 0.00 0.00 0.00 86 1015.6
20260507015002 48 305 0.0 0.0 0.00 0.00 0.00 86 1015.6
20260507014502 48 305 0.0 0.0 0.00 0.00 0.00 87 1015.6
20260507014002 47 305 0.0 0.0 0.00 0.00 0.00 87 1015.8
20260507013502 47 305 0.0 0.0 0.00 0.00 0.00 87 1015.6
20260507013002 47 305 0.0 0.0 0.00 0.00 0.00 87 1015.4
20260507012502 47 305 0.0 0.0 0.00 0.00 0.00 87 1015.7
20260507012002 47 305 0.0 0.0 0.00 0.00 0.00 87 1015.7
20260507011502 47 305 0.0 0.0 0.00 0.00 0.00 86 1015.5
20260507011002 47 305 0.0 0.0 0.00 0.00 0.00 85 1015.6
20260507010502 47 305 0.0 0.0 0.00 0.00 0.00 85 1015.7
20260507010002 47 305 0.0 0.0 0.00 0.00 0.00 84 1015.5
20260507005502 48 305 0.0 0.0 0.00 0.00 0.00 84 1015.4
20260507005002 48 305 0.0 0.0 0.00 0.00 0.00 84 1015.5
20260507004502 48 305 0.0 0.0 0.00 0.00 0.00 84 1015.5
20260507004002 48 305 0.0 0.0 0.00 0.00 0.00 83 1015.6
20260507003502 48 305 0.0 0.0 0.00 0.00 0.00 82 1015.6
20260507003002 48 305 0.0 0.0 0.00 0.00 0.00 82 1015.4
20260507002502 49 305 0.0 0.0 0.00 0.00 0.00 81 1015.6
20260507002002 49 305 0.0 0.0 0.00 0.00 0.00 81 1015.4
20260507001503 49 306 0.0 0.0 0.00 0.00 0.00 81 1015.4
20260507001002 49 306 0.0 0.0 0.00 0.00 0.00 80 1015.7
20260507000502 49 305 0.0 0.0 0.00 0.00 0.00 80 1015.7
20260507000003 49 305 0.0 0.0 0.00 0.00 0.00 79 1015.7
20260506235502 49 304 0.0 0.0 0.00 0.00 0.00 79 1015.5
20260506235002 50 305 0.0 0.0 0.00 0.00 0.00 78 1015.4
20260506234502 50 305 0.0 0.0 0.00 0.00 0.00 78 1015.5
20260506234002 50 305 0.0 0.0 0.00 0.00 0.00 77 1015.5
20260506233502 50 305 0.0 0.0 0.00 0.00 0.00 77 1015.3
20260506233002 50 305 0.0 0.0 0.00 0.00 0.00 77 1015.4
20260506232502 50 304 0.0 2.0 0.00 0.00 0.00 76 1015.5
20260506232003 50 294 0.0 2.0 0.00 0.00 0.00 76 1015.3
20260506231502 50 292 0.0 2.0 0.00 0.00 0.00 76 1015.3
20260506231002 50 287 0.0 0.0 0.00 0.00 0.00 76 1015.5
20260506230502 50 295 0.0 3.0 0.00 0.00 0.00 76 1015.5
20260506230002 50 241 0.0 0.0 0.00 0.00 0.00 75 1015.4
20260506225502 50 241 0.0 0.0 0.00 0.00 0.00 75 1015.5
20260506225002 50 241 0.0 0.0 0.00 0.00 0.00 74 1015.4
20260506224502 50 241 0.0 0.0 0.00 0.00 0.00 74 1015.4
20260506224002 50 241 0.0 0.0 0.00 0.00 0.00 73 1015.4
20260506223502 50 241 0.0 0.0 0.00 0.00 0.00 72 1015.4
20260506223002 50 241 0.0 0.0 0.00 0.00 0.00 72 1015.2
20260506222502 50 241 0.0 0.0 0.00 0.00 0.00 71 1015.3
20260506222002 50 241 0.0 0.0 0.00 0.00 0.00 71 1015.2
20260506221502 50 240 0.0 0.0 0.00 0.00 0.00 70 1015.3
20260506221002 51 240 0.0 0.0 0.00 0.00 0.00 69 1015.3
20260506220502 51 240 0.0 0.0 0.00 0.00 0.00 69 1015.1
20260506220002 51 240 0.0 0.0 0.00 0.00 0.00 68 1015.1
20260506215502 51 240 0.0 0.0 0.00 0.00 0.00 68 1015.2
20260506215002 51 240 0.0 0.0 0.00 0.00 0.00 68 1015.2
20260506214002 51 342 2.0 3.0 0.00 0.00 0.00 66 1015.2
20260506213503 52 246 0.0 2.0 0.00 0.00 0.00 66 1015.2
20260506213002 52 25 3.0 4.0 0.00 0.00 0.00 65 1015.2
20260506212502 52 93 2.0 3.0 0.00 0.00 0.00 66 1015.3
20260506212002 52 247 0.0 0.0 0.00 0.00 0.00 66 1015.1
20260506211502 52 247 1.0 2.0 0.00 0.00 0.00 65 1015.1
20260506211002 52 230 0.0 0.0 0.00 0.00 0.00 64 1015.0
20260506210502 52 300 0.0 3.0 0.00 0.00 0.00 64 1015.1
20260506210002 52 302 0.0 3.0 0.00 0.00 0.00 63 1014.9
20260506205502 52 338 1.0 3.0 0.00 0.00 0.00 63 1014.9
20260506205002 52 299 0.0 3.0 0.00 0.00 0.00 63 1015.1
20260506204502 52 283 1.0 3.0 0.00 0.00 0.00 63 1015.0
20260506204002 52 68 3.0 5.0 0.00 0.00 0.00 63 1014.7
20260506203502 52 17 2.0 3.0 0.00 0.00 0.00 63 1015.1